Weather History for Port Isabel, TX

Change the Weather History Date:

Tuesday, January 21, 2014

  Actual Average Record
Temperature  
Mean Temperature 56 °F -  
Max Temperature 66 °F - - ()
Min Temperature 45 °F - - ()
Degree Days  
Heating Degree Days 9    
Growing Degree Days 6 (Base 50)    
Moisture  
Dew Point 45 °F    
Average Humidity 65    
Maximum Humidity 96    
Minimum Humidity 29    
Precipitation  
Precipitation 0.00 in - - ()
Sea Level Pressure  
Sea Level Pressure 30.22 in    
Wind  
Wind Speed 10 mph (NNW)    
Max Wind Speed 28 mph    
Max Gust Speed 36 mph    
Visibility 8 miles    
Events Fog    
T = Trace of Precipitation, MM = Missing Value Source: NWS Daily Summary

Daily Weather History Graph

Daily Weather History Graph

Search for Another Location

Airport:

Trip Planner

Search our weather history database for the weather conditions in past years. The results will help you decide how hot, cold, wet, or windy it might be!

Date:

Astronomy

Jan. 21, 2014 Rise Set
Actual Time 7:17 AM CST 6:04 PM CST
Civil Twilight 6:52 AM CST 6:28 PM CST
Nautical Twilight 6:24 AM CST 6:56 PM CST
Astronomical Twilight 5:57 AM CST 7:24 PM CST
Moon 11:01 PM CST (1/21) 10:21 AM CST (1/21)
Length of Visible Light 11h 35m
Length of Day
10h 46m
Waning Gibbous, 74% of the Moon is Illuminated
Jan 21
Waning Gibbous
Jan 23
Last Quarter
Jan 30
New
Feb 6
First Quarter
Feb 14
Full

Hourly Weather History & Observations

Time (CST) Temp. Dew Point Humidity Pressure Visibility Wind Dir Wind Speed Gust Speed Precip Events Conditions
12:53 AM 62.1 °F 60.1 °F 93% 30.03 in 5.0 mi SSW 6.9 mph - N/A   Clear
1:53 AM 62.1 °F 60.1 °F 93% 30.04 in 5.0 mi SSW 5.8 mph - N/A   Clear
2:53 AM 60.1 °F 57.9 °F 93% 30.05 in 3.0 mi WSW 3.5 mph - N/A   Clear
3:10 AM 60.8 °F 59.0 °F 94% 30.06 in 1.0 mi WNW 5.8 mph - N/A   Mist
3:15 AM 59.0 °F 57.2 °F 94% 30.06 in 0.2 mi WNW 6.9 mph - N/A Fog Fog
3:36 AM 60.8 °F 59.0 °F 94% 30.09 in 1.0 mi NNW 11.5 mph - N/A   Overcast
3:41 AM 60.8 °F 59.0 °F 94% 30.09 in 3.0 mi NNW 9.2 mph - N/A   Mostly Cloudy
3:53 AM 60.1 °F 59.0 °F 96% 30.10 in 5.0 mi NNW 8.1 mph - N/A   Partly Cloudy
4:53 AM 60.1 °F 51.1 °F 72% 30.12 in 10.0 mi North 16.1 mph - N/A   Clear
5:53 AM 60.1 °F 46.0 °F 60% 30.17 in 10.0 mi North 17.3 mph - N/A   Clear
6:53 AM 59.0 °F 45.0 °F 60% 30.22 in 10.0 mi North 18.4 mph 25.3 mph N/A   Clear
7:53 AM 59.0 °F 42.1 °F 53% 30.27 in 10.0 mi North 16.1 mph 24.2 mph N/A   Clear
8:53 AM 62.1 °F 41.0 °F 46% 30.32 in 10.0 mi North 17.3 mph 28.8 mph N/A   Clear
9:53 AM 63.0 °F 39.0 °F 41% 30.35 in 10.0 mi North 27.6 mph 33.4 mph N/A   Clear
10:53 AM 64.0 °F 37.9 °F 38% 30.38 in 10.0 mi North 27.6 mph 35.7 mph N/A   Clear
11:53 AM 64.9 °F 39.0 °F 39% 30.37 in 10.0 mi North 24.2 mph 34.5 mph N/A   Clear
12:53 PM 64.9 °F 37.9 °F 37% 30.36 in 10.0 mi North 25.3 mph 33.4 mph N/A   Clear
1:53 PM 64.9 °F 35.1 °F 33% 30.34 in 10.0 mi North 18.4 mph 27.6 mph N/A   Clear
2:53 PM 66.0 °F 33.1 °F 29% 30.31 in 10.0 mi NNE 15.0 mph 24.2 mph N/A   Clear
3:53 PM 66.0 °F 36.0 °F 33% 30.29 in 10.0 mi North 11.5 mph - N/A   Clear
4:53 PM 63.0 °F 37.0 °F 38% 30.29 in 10.0 mi NNE 9.2 mph - N/A   Clear
5:53 PM 59.0 °F 39.0 °F 48% 30.28 in 10.0 mi NNE 3.5 mph - N/A   Clear
6:53 PM 55.0 °F 39.9 °F 57% 30.27 in 10.0 mi Calm Calm - N/A   Clear
7:53 PM 52.0 °F 39.9 °F 63% 30.28 in 10.0 mi NNE 4.6 mph - N/A   Clear
8:53 PM 48.0 °F 39.9 °F 74% 30.28 in 10.0 mi Calm Calm - N/A   Clear
9:53 PM 46.0 °F 39.0 °F 76% 30.28 in 10.0 mi Calm Calm - N/A   Clear
10:53 PM 48.0 °F 39.9 °F 74% 30.28 in 10.0 mi Calm Calm - N/A   Clear
11:53 PM 45.0 °F 41.0 °F 86% 30.27 in 10.0 mi Calm Calm - N/A   Clear